Regional Weather Roundup
Issued by NWS

Home | Current Version | Previous Version | Text Only | Print | Product List | Glossary Off
Versions: 1 2 3 4 5 6 7 8 9 10 11 12 13 14 15 16 17 18 19 20 21 22 23 24 25 26 27 28 29 30 31 32 33 34 35 36 37 38 39 40 41 42 43 44 45 46 47 48 49 50

000
ASUS43 KBIS 030420
RWRND

NORTH DAKOTA REGIONAL WEATHER ROUNDUP
NATIONAL WEATHER SERVICE BISMARCK ND
1100 PM CDT SAT MAY 02 2015

NOTE: "FAIR" INDICATES FEW OR NO CLOUDS BELOW 12,000 FEET WITH NO
SIGNIFICANT WEATHER AND/OR OBSTRUCTIONS TO VISIBILITY.


NDZ001>003-009>011-017-030500-
NORTHWEST NORTH DAKOTA

CITY           SKY/WX    TMP DP  RH WIND       PRES   REMARKS
WILLISTON      MOCLDY    55  35  47 N15       29.80R
MINOT          CLEAR     57  35  43 NW13      29.71R
MINOT AFB      CLEAR     56  37  47 N10       29.71R
$$

NDZ018>021-031>035-040>046-030500-
SOUTHWEST NORTH DAKOTA

CITY           SKY/WX    TMP DP  RH WIND       PRES   REMARKS
BISMARCK       PTCLDY    64  34  32 N9        29.68R
DICKINSON      PTCLDY    58  29  33 NW8       29.72R
GARRISON         N/A     51  36  56 N10       29.70R
HETTINGER ARPT PTCLDY    47  32  56 W6        29.74R
$$

NDZ004>008-012>016-024-026-027-054-030500-
NORTHEAST NORTH DAKOTA

CITY           SKY/WX    TMP DP  RH WIND       PRES   REMARKS
GRAND FORKS    PTCLDY    56  45  66 SW3       29.59R
GRND FRKS AFB  CLEAR     56  45  67 CALM      29.59S
DEVILS LAKE    CLEAR     59  36  41 N12       29.64S
$$

NDZ022-023-025-028>030-036>039-047>053-030500-
SOUTHEAST NORTH DAKOTA

CITY           SKY/WX    TMP DP  RH WIND       PRES   REMARKS
FARGO          PTCLDY    66  49  54 SE17      29.60R
JAMESTOWN      CLOUDY    59  35  40 N5        29.65R
$$



USA.gov is the U.S. government's official web portal to all federal, state and local government web resources and services.